| time (UTC) | temp C | wind direction | speed KPH | gust KPH | rain 1hr cm | rain 24hr cm | rain mn cm | humidity % | barometer mb |
| 20260904050805 | 6 | 279 | 9.7 | 11.3 | 0.00 | 0.00 | 0.00 | 87 | 1021.0 |
| 20260904040804 | 10 | 25 | 3.2 | 4.8 | 0.00 | 0.00 | 0.00 | 73 | 1020.6 |
| 20260904040305 | 10 | 24 | 4.8 | 9.7 | 0.00 | 0.00 | 0.00 | 70 | 1020.6 |
| 20260904030804 | 12 | 159 | 0.0 | 1.6 | 0.00 | 0.00 | 0.00 | 55 | 1020.0 |
| 20260904020804 | 14 | 88 | 0.0 | 0.0 | 0.00 | 0.00 | 0.00 | 44 | 1019.9 |
| 20260904020304 | 15 | 88 | 0.0 | 4.8 | 0.00 | 0.00 | 0.00 | 43 | 1019.8 |
| 20260904010804 | 16 | 54 | 1.6 | 4.8 | 0.00 | 0.00 | 0.00 | 40 | 1020.1 |
| 20260903230804 | 13 | 312 | 0.0 | 1.6 | 0.00 | 0.00 | 0.00 | 51 | 1020.7 |
| 20260903230304 | 12 | 338 | 1.6 | 4.8 | 0.00 | 0.00 | 0.00 | 53 | 1020.7 |
| 20260903220805 | 11 | 151 | 0.0 | 3.2 | 0.00 | 0.00 | 0.00 | 57 | 1021.1 |
| 20260903220305 | 11 | 191 | 1.6 | 8.0 | 0.00 | 0.00 | 0.00 | 54 | 1021.2 |
| 20260903210804 | 11 | 277 | 3.2 | 4.8 | 0.00 | 0.00 | 0.00 | 61 | 1021.3 |
| 20260903200804 | 10 | 288 | 4.8 | 9.7 | 0.00 | 0.00 | 0.00 | 65 | 1021.7 |
| 20260903200304 | 10 | 262 | 4.8 | 14.5 | 0.00 | 0.00 | 0.00 | 66 | 1021.8 |
| 20260903190804 | 8 | 283 | 9.7 | 11.3 | 0.00 | 0.00 | 0.00 | 71 | 1021.8 |
| 20260903180804 | 7 | 263 | 3.2 | 4.8 | 0.00 | 0.00 | 0.00 | 78 | 1022.0 |
| 20260903180304 | 7 | 264 | 3.2 | 11.3 | 0.00 | 0.00 | 0.00 | 79 | 1022.1 |
| 20260903170804 | 5 | 275 | 8.0 | 11.3 | 0.00 | 0.00 | 0.00 | 87 | 1021.7 |
| 20260903170304 | 5 | 272 | 8.0 | 12.9 | 0.00 | 0.00 | 0.00 | 88 | 1021.7 |
| 20260903160804 | 3 | 281 | 4.8 | 8.0 | 0.00 | 0.00 | 0.00 | 95 | 1021.5 |
| 20260903160304 | 3 | 274 | 3.2 | 9.7 | 0.00 | 0.00 | 0.00 | 96 | 1021.5 |
| 20260903150804 | 2 | 283 | 6.4 | 8.0 | 0.00 | 0.00 | 0.00 | 99 | 1021.0 |
| 20260903150304 | 2 | 279 | 4.8 | 9.7 | 0.00 | 0.00 | 0.00 | 99 | 1021.0 |
| 20260903140804 | 2 | 274 | 4.8 | 4.8 | 0.00 | 0.00 | 0.00 | 98 | 1020.4 |
| 20260903140305 | 2 | 283 | 4.8 | 9.7 | 0.00 | 0.00 | 0.00 | 98 | 1020.4 |
| 20260903130804 | 3 | 278 | 4.8 | 4.8 | 0.00 | 0.00 | 0.00 | 98 | 1019.7 |
| 20260903130304 | 3 | 276 | 4.8 | 11.3 | 0.00 | 0.00 | 0.00 | 98 | 1019.6 |
| 20260903120305 | 5 | 226 | 3.2 | 12.9 | 0.00 | 0.00 | 0.00 | 96 | 1019.1 |
| 20260903110805 | 6 | 258 | 3.2 | 9.7 | 0.00 | 0.00 | 0.00 | 97 | 1018.6 |
| 20260903110306 | 6 | 207 | 3.2 | 11.3 | 0.00 | 0.00 | 0.00 | 96 | 1018.5 |
| 20260903100805 | 6 | 281 | 4.8 | 8.0 | 0.00 | 0.00 | 0.00 | 97 | 1017.8 |
| 20260903100307 | 6 | 279 | 8.0 | 9.7 | 0.00 | 0.00 | 0.00 | 98 | 1017.7 |
| 20260903080806 | 7 | 265 | 3.2 | 3.2 | 0.00 | 0.00 | 0.00 | 98 | 1016.2 |
| 20260903080305 | 7 | 264 | 3.2 | 8.0 | 0.00 | 0.00 | 0.00 | 98 | 1016.1 |
| 20260903070812 | 7 | 253 | 1.6 | 3.2 | 0.00 | 0.00 | 0.00 | 98 | 1015.1 |
| 20260903070305 | 7 | 247 | 1.6 | 4.8 | 0.00 | 0.00 | 0.00 | 98 | 1015.1 |
| 20260903060805 | 7 | 266 | 0.0 | 3.2 | 0.00 | 0.25 | 0.00 | 98 | 1014.0 |
| 20260903060306 | 7 | 239 | 1.6 | 3.2 | 0.00 | 0.25 | 0.00 | 98 | 1013.9 |